(362626) = 2004 RD291 = 2011 SZ115

Discovered at Socorro on 2004-09-10 by LINEAR.

Orbit

Orbit type: Main Belt

Note: WebGL enabled browser required.

epoch2023-02-25.0
epoch JD2460000.5
perihelion date2022-05-30.01049
perihelion JD2459729.51049
argument of perihelion (°)219.36680
ascending node (°)189.89854
inclination (°)9.14336
eccentricity0.1710361
perihelion distance (AU)1.8906993
Tisserand w.r.t. Jupiter3.6
ΔV w.r.t. Earth (km/sec)8.9
semimajor axis (AU)2.2807980
mean anomaly (°)77.54006
mean daily motion (°/day)0.28613670
aphelion distance (AU)2.671
period (years)3.44
P-vector [x]0.65394243
P-vector [y]0.72802064
P-vector [z]0.20577961
Q-vector [x]-0.75605100
Q-vector [y]0.63869782
Q-vector [z]0.14301042
absolute magnitude17.62
phase slope0.15
uncertainty0
referenceMPEC 2023-F215
observations used296
oppositions11
arc length (days)7738
first opposition used2002
last opposition used2023
residual rms (arc-secs)0.78
perturbers coarse indicatorM-v
perturbers precise indicator003Ek
first observation date used2002-01-18.0
last observation date used2023-03-28.0
computer nameMPCLINUX
Minimum Orbit Intersection Distances (in AU)
for orbit epoch: 2460000.5, reference: E2023-F48
Mercury1.57399
Venus1.17051
Earth0.90751
Mars0.45186
Jupiter2.73603
Saturn7.01681
Uranus15.9396
Neptune27.8804

Observations

301 total observations over interval: 2002 01 18.81232 – 2023 03 28.169553
These data are available for download (format description).

Date (UT) J2000 RA J2000 Dec Magn Location Ref
2002 01 18.81232 04 54 06.47 +07 01 45.4 20.1 C 209 – Asiago Observatory, Cima Ekar-ADAS MPS 439688
2002 01 18.85992 04 54 06.39 +07 02 01.7 20.1 C 209 – Asiago Observatory, Cima Ekar-ADAS MPS 439688
2002 01 18.90844 04 54 06.30 +07 02 19.2 20.2 C 209 – Asiago Observatory, Cima Ekar-ADAS MPS 439688
2004 09 10.18222 22 11 56.16 -01 57 07.5 19.9   704 – Lincoln Laboratory ETS, New Mexico MPS 114567
2004 09 10.19356 22 11 55.67 -01 57 14.1 20.2   704 – Lincoln Laboratory ETS, New Mexico MPS 114567
2004 09 10.22804 22 11 54.07 -01 57 37.0 20.6   704 – Lincoln Laboratory ETS, New Mexico MPS 114567
2004 09 15.19084 22 08 21.24 -02 52 36.9 19.2 R 699 – Lowell Observatory-LONEOS MPS 114567
2004 09 15.20545 22 08 20.68 -02 52 45.3   699 – Lowell Observatory-LONEOS MPS 114567
2004 09 15.22003 22 08 19.98 -02 52 56.6   699 – Lowell Observatory-LONEOS MPS 114567
2004 09 15.23460 22 08 19.38 -02 53 05.9   699 – Lowell Observatory-LONEOS MPS 114567
2010 05 11.25806 15 14 56.76 -08 23 01.0 21.2 V G96 – Mt. Lemmon Survey MPS 439688
2010 05 11.26448 15 14 56.36 -08 22 58.4 21.0 V G96 – Mt. Lemmon Survey MPS 439688
2010 05 11.27102 15 14 56.00 -08 22 56.5 20.6 V G96 – Mt. Lemmon Survey MPS 439688
2010 05 11.27748 15 14 55.57 -08 22 53.4 21.2 V G96 – Mt. Lemmon Survey MPS 439688
2011 09 07.00104 23 59 27.72 +05 35 46.1 19.0 R 106 – Crni Vrh MPS 439688
2011 09 07.01092 23 59 27.37 +05 35 40.0 19.7 R 106 – Crni Vrh MPS 439688
2011 09 07.02080 23 59 27.00 +05 35 33.9 18.8 R 106 – Crni Vrh MPS 439688
2011 09 07.03069 23 59 26.61 +05 35 29.0 18.5 R 106 – Crni Vrh MPS 439688
2011 09 21.32122 23 49 18.69 +02 56 12.7 19.1   704 – Lincoln Laboratory ETS, New Mexico MPS 392949
2011 09 21.33425 23 49 18.01 +02 56 03.8 19.4   704 – Lincoln Laboratory ETS, New Mexico MPS 392949
2011 09 21.34727 23 49 17.38 +02 55 54.1 19.0   704 – Lincoln Laboratory ETS, New Mexico MPS 392949
2011 09 21.36120 23 49 16.66 +02 55 43.8 19.3   704 – Lincoln Laboratory ETS, New Mexico MPS 392949
2011 09 27.23438 23 44 48.16 +01 42 11.5 19.2   704 – Lincoln Laboratory ETS, New Mexico MPS 392949
2011 09 27.24706 23 44 47.51 +01 42 02.7 19.2   704 – Lincoln Laboratory ETS, New Mexico MPS 392949
2011 09 27.25979 23 44 46.90 +01 41 52.7 19.3   704 – Lincoln Laboratory ETS, New Mexico MPS 392949
2011 10 18.24296 23 32 44.55 -02 21 46.8 19.7 V G96 – Mt. Lemmon Survey MPS 439688
2011 10 18.24913 23 32 44.41 -02 21 50.2 19.6 V G96 – Mt. Lemmon Survey MPS 439688
2011 10 18.25530 23 32 44.30 -02 21 54.1 19.8 V G96 – Mt. Lemmon Survey MPS 439688
2011 10 18.26147 23 32 44.16 -02 21 57.8 19.8 V G96 – Mt. Lemmon Survey MPS 439688
2011 10 21.10979 23 31 57.67 -02 48 28.1 20.4 g I41 – Palomar Mountain--ZTF MPS 437989
2011 10 21.16110 23 31 56.84 -02 48 55.4 20.4 g I41 – Palomar Mountain--ZTF MPS 437989
2011 10 21.17823 23 31 56.56 -02 49 04.7 20.1 g I41 – Palomar Mountain--ZTF MPS 437989
2011 10 21.22864 23 31 55.72 -02 49 31.8 20.4 g I41 – Palomar Mountain--ZTF MPS 437989
2011 10 21.24087 23 31 55.53 -02 49 38.3 20.3 g I41 – Palomar Mountain--ZTF MPS 437989
2011 10 21.28476 23 31 54.81 -02 50 01.7 20.4 g I41 – Palomar Mountain--ZTF MPS 437989
2011 10 21.29689 23 31 54.60 -02 50 08.2 20.4 g I41 – Palomar Mountain--ZTF MPS 437989
2011 10 21.33703 23 31 53.98 -02 50 29.6 20.3 g I41 – Palomar Mountain--ZTF MPS 437989
2011 10 22.25185 23 31 42.73 -02 58 29.1 20.3 g I41 – Palomar Mountain--ZTF MPS 437989
2011 10 22.29582 23 31 42.12 -02 58 52.1 20.1 g I41 – Palomar Mountain--ZTF MPS 437989
2013 03 12.37133 12 28 45.08 -05 21 16.7 20.2 V G96 – Mt. Lemmon Survey MPS 459364
2013 03 12.38015 12 28 44.61 -05 21 12.0 20.6 V G96 – Mt. Lemmon Survey MPS 459364
2013 03 12.38902 12 28 44.18 -05 21 07.1 20.6 V G96 – Mt. Lemmon Survey MPS 459364
2013 04 04.27405 12 08 38.14 -01 42 30.6 20.7 V G96 – Mt. Lemmon Survey MPS 461699
2013 04 04.27926 12 08 37.82 -01 42 27.7 20.6 V G96 – Mt. Lemmon Survey MPS 461699
2013 04 04.28453 12 08 37.60 -01 42 24.9 20.7 V G96 – Mt. Lemmon Survey MPS 461699
2013 04 04.28970 12 08 37.28 -01 42 21.8 20.9 V G96 – Mt. Lemmon Survey MPS 461699
2013 04 05.089787 12 07 57.61 -01 34 47.6 20.7 R W87 – Cerro Tololo-LCO C MPS 462780
2013 04 05.094987 12 07 57.36 -01 34 44.8 20.8 R W87 – Cerro Tololo-LCO C MPS 462780
2013 04 05.100436 12 07 57.07 -01 34 41.6   W87 – Cerro Tololo-LCO C MPS 462780
2013 04 05.105172 12 07 56.84 -01 34 39.3 20.5 R W87 – Cerro Tololo-LCO C MPS 462780
2013 04 05.41293 12 07 41.504 -01 31 52.39 21.1 g F51 – Pan-STARRS 1, Haleakala MPS 462780
2013 04 05.42465 12 07 40.870 -01 31 45.27 21.0 g F51 – Pan-STARRS 1, Haleakala MPS 462780
2013 04 05.44775 12 07 39.714 -01 31 32.78 20.7 r F51 – Pan-STARRS 1, Haleakala MPS 462780
2015 12 13.53387 08 45 03.593 +03 15 14.32 20.8 w F51 – Pan-STARRS 1, Haleakala MPS 662571
2015 12 13.54649 08 45 03.491 +03 15 10.96 20.9 w F51 – Pan-STARRS 1, Haleakala MPS 662571
2015 12 13.55928 08 45 03.396 +03 15 07.60 20.7 w F51 – Pan-STARRS 1, Haleakala MPS 662571
2015 12 13.57196 08 45 03.299 +03 15 04.37 20.7 w F51 – Pan-STARRS 1, Haleakala MPS 662571
2016 01 09.43714 08 31 00.817 +02 47 58.84 20.0 w F51 – Pan-STARRS 1, Haleakala MPS 671558
2016 01 09.45124 08 31 00.018 +02 48 01.12 20.1 w F51 – Pan-STARRS 1, Haleakala MPS 671558
2016 01 09.46537 08 30 59.220 +02 48 03.42 20.2 w F51 – Pan-STARRS 1, Haleakala MPS 671558
2016 01 10.53865 08 30 00.775 +02 51 05.33 20.0 w F51 – Pan-STARRS 1, Haleakala MPS 671558
2016 01 10.55217 08 30 00.000 +02 51 07.72 20.0 w F51 – Pan-STARRS 1, Haleakala MPS 671558
2016 01 10.56560 08 29 59.220 +02 51 10.15 20.2 w F51 – Pan-STARRS 1, Haleakala MPS 671558
2016 01 10.57907 08 29 58.452 +02 51 12.46 20.1 w F51 – Pan-STARRS 1, Haleakala MPS 671558
2016 01 12.38151 08 28 18.454 +02 57 02.34 20.1 w F51 – Pan-STARRS 1, Haleakala MPS 671558
2016 01 12.39406 08 28 17.712 +02 57 05.03 20.0 w F51 – Pan-STARRS 1, Haleakala MPS 671558
2016 01 12.40660 08 28 16.970 +02 57 07.68 19.9 w F51 – Pan-STARRS 1, Haleakala MPS 671558
2016 01 12.41924 08 28 16.220 +02 57 10.33 20.0 w F51 – Pan-STARRS 1, Haleakala MPS 671558
2016 01 13.28569 08 27 26.78 +03 00 16.7 20.5 r G45 – Space Surveillance Telescope, Atom Site MPS 671559
2016 01 13.29148 08 27 26.42 +03 00 17.9 20.6 r G45 – Space Surveillance Telescope, Atom Site MPS 671559
2016 01 13.30337 08 27 25.71 +03 00 20.6 20.2 r G45 – Space Surveillance Telescope, Atom Site MPS 671559
2016 01 13.30755 08 27 25.48 +03 00 21.3 20.4 r G45 – Space Surveillance Telescope, Atom Site MPS 671559
2016 01 13.30769 08 27 25.48 +03 00 21.5 19.9 r G45 – Space Surveillance Telescope, Atom Site MPS 671559
2016 01 13.31944 08 27 24.74 +03 00 23.7 20.1 r G45 – Space Surveillance Telescope, Atom Site MPS 671559
2016 01 18.28894 08 22 31.31 +03 22 10.1 20.1 r G45 – Space Surveillance Telescope, Atom Site MPS 673822
2016 01 18.29416 08 22 30.98 +03 22 11.4 19.9 r G45 – Space Surveillance Telescope, Atom Site MPS 673822
2016 01 18.30464 08 22 30.34 +03 22 14.5 20.0 r G45 – Space Surveillance Telescope, Atom Site MPS 673822
2016 01 18.31019 08 22 30.02 +03 22 16.6 20.0 r G45 – Space Surveillance Telescope, Atom Site MPS 673822
2016 01 18.32064 08 22 29.30 +03 22 19.6 20.3 r G45 – Space Surveillance Telescope, Atom Site MPS 673822
2016 01 19.38677 08 21 25.073 +03 27 49.43 19.6 i F51 – Pan-STARRS 1, Haleakala MPS 673822
2016 01 19.39920 08 21 24.280 +03 27 53.44 19.5 i F51 – Pan-STARRS 1, Haleakala MPS 673822
2016 01 19.41168 08 21 23.486 +03 27 57.31 19.7 i F51 – Pan-STARRS 1, Haleakala MPS 673822
2016 01 19.42416 08 21 22.695 +03 28 01.28 19.9 i F51 – Pan-STARRS 1, Haleakala MPS 673822
2016 02 07.23865 08 03 21.00 +05 39 47.9 19.8 V 703 – Catalina Sky Survey MPS 682227
2016 02 07.24322 08 03 20.81 +05 39 50.9 21.1 V 703 – Catalina Sky Survey MPS 682227
2016 02 07.24780 08 03 20.52 +05 39 53.5 20.4 V 703 – Catalina Sky Survey MPS 682227
2016 02 07.25238 08 03 20.31 +05 39 55.4   703 – Catalina Sky Survey MPS 682227
2016 02 09.38473 08 01 38.521 +05 57 37.86 20.2 w F51 – Pan-STARRS 1, Haleakala MPS 682227
2016 02 09.39600 08 01 37.965 +05 57 43.41 20.3 w F51 – Pan-STARRS 1, Haleakala MPS 682227
2016 02 09.40725 08 01 37.412 +05 57 49.08 20.2 w F51 – Pan-STARRS 1, Haleakala MPS 682227
2016 02 09.41860 08 01 36.856 +05 57 54.74 20.1 w F51 – Pan-STARRS 1, Haleakala MPS 682227
2016 02 10.20664 08 01 01.18 +06 04 28.7 19.9 V 691 – Steward Observatory, Kitt Peak-Spacewatch MPS 682227
2016 02 10.21719 08 01 00.78 +06 04 34.1 20.0 V 691 – Steward Observatory, Kitt Peak-Spacewatch MPS 682227
